Date,TemperatureHighF,TemperatureAvgF,TemperatureLowF,DewpointHighF,DewpointAvgF,DewpointLowF,HumidityHigh,HumidityAvg,HumidityLow,PressureMaxIn,PressureMinIn,WindSpeedMaxMPH,WindSpeedAvgMPH,GustSpeedMaxMPH,PrecipitationSumIn
2013-1-1,37.4,33.1,23.0,30.2,25.0,15.1,82,72,62,29.97,29.80,13,2,13,0.01
2013-1-2,32.2,23.2,14.2,18.3,13.4,8.2,78,66,53,30.14,29.96,14,2,14,0.00
2013-1-3,23.0,17.0,8.2,14.9,5.7,-0.2,81,61,48,30.20,30.07,10,1,13,0.00
2013-1-4,37.8,29.4,14.0,28.9,22.4,11.3,93,76,58,30.07,29.91,21,4,26,0.00
2013-1-5,43.3,33.3,21.9,27.0,24.0,19.9,92,70,47,30.32,29.94,14,2,15,0.00
2013-1-6,41.4,31.8,21.9,36.0,29.0,19.9,95,90,79,30.29,30.01,14,2,21,0.01
2013-1-7,39.7,32.7,22.1,33.1,28.6,20.5,96,85,73,30.48,30.03,17,2,19,0.00
2013-1-8,45.9,39.1,21.9,37.4,33.8,20.1,96,82,65,30.46,30.36,27,5,28,0.00
2013-1-9,48.6,37.2,24.3,44.6,34.5,22.8,96,90,74,30.46,30.08,23,3,29,0.00
2013-1-10,47.7,41.7,34.2,36.9,27.9,24.6,75,59,42,30.56,30.13,20,3,20,0.00
2013-1-11,42.8,36.3,27.0,37.2,31.5,24.3,93,83,69,30.56,30.28,8,1,12,0.00
2013-1-12,45.9,42.4,38.8,43.3,40.7,37.0,96,93,85,30.30,30.18,10,2,12,0.00
2013-1-13,51.3,45.4,42.6,50.5,44.8,41.7,98,97,96,30.23,30.09,11,4,13,0.00
2013-1-14,56.5,51.4,42.4,56.1,49.2,33.8,99,93,62,30.29,30.01,15,4,20,0.00
2013-1-15,42.3,39.6,37.2,38.1,36.2,34.9,95,88,83,30.34,30.25,9,2,13,0.00
2013-1-16,41.2,39.0,36.0,40.5,37.7,34.9,97,95,85,30.28,29.78,15,2,16,0.24
2013-1-17,43.5,37.5,31.8,36.0,32.1,25.7,97,82,61,30.13,29.91,11,2,14,0.01
2013-1-18,33.4,22.9,11.3,26.1,11.6,-0.6,94,65,32,30.55,30.06,24,5,29,0.00
2013-1-19,47.1,38.1,11.3,43.5,31.8,8.2,92,78,70,30.50,30.02,29,8,32,0.00
2013-1-20,52.3,46.7,30.0,45.9,36.6,12.2,88,69,42,30.02,29.65,27,9,32,0.00
2013-1-21,32.4,27.5,23.0,27.3,14.8,7.5,94,61,40,30.17,29.82,14,2,14,0.00
2013-1-22,28.8,22.2,13.3,27.3,12.5,-0.4,94,69,39,30.13,29.77,10,1,11,0.00
2013-1-23,17.4,12.4,8.2,2.8,-2.2,-6.0,74,52,39,30.22,30.12,17,2,18,0.00
2013-1-24,19.8,11.9,3.7,-2.0,-5.2,-7.8,60,46,33,30.26,30.10,18,3,23,0.00
2013-1-25,25.2,16.8,8.4,13.5,-0.1,-6.9,78,48,33,30.37,30.10,12,2,14,0.00
2013-1-26,25.9,20.2,15.3,16.7,10.5,-2.9,90,68,40,30.26,30.03,17,3,17,0.00
2013-1-27,30.7,20.7,13.5,8.6,4.3,0.1,63,49,33,30.52,30.26,16,4,19,0.00
2013-1-28,32.2,23.5,11.7,30.9,14.0,1.2,95,69,32,30.51,30.06,7,1,8,0.00
2013-1-29,37.6,34.1,31.8,36.5,33.0,30.6,97,96,95,30.27,30.04,9,2,10,0.16
2013-1-30,54.7,45.9,36.7,53.6,45.0,35.6,98,97,95,30.23,29.63,22,8,24,0.08
2013-1-31,55.2,47.6,33.1,54.5,40.6,15.4,98,78,46,29.68,29.15,35,11,46,0.26
2013-2-1,33.6,30.0,23.5,18.1,12.6,8.2,61,48,37,30.15,29.68,20,4,21,0.00
2013-2-2,31.6,25.8,18.9,26.1,12.8,5.2,90,58,40,30.32,30.11,15,3,17,0.00
2013-2-3,32.0,27.1,23.5,27.1,23.9,19.8,93,88,80,30.12,29.73,14,4,18,0.00
2013-2-4,32.2,26.2,20.8,22.3,14.1,8.8,89,62,39,30.02,29.75,15,3,22,0.00
2013-2-5,29.8,25.3,22.8,28.4,18.8,12.0,94,77,61,30.09,29.97,7,1,10,0.00
2013-2-6,40.3,32.9,28.0,32.4,26.1,9.7,96,78,47,30.33,29.96,14,2,14,0.01
2013-2-7,28.0,25.0,19.2,23.2,12.1,6.4,82,59,41,30.58,30.33,15,2,16,0.01
2013-2-8,34.0,31.9,28.0,32.4,28.8,23.0,97,89,80,30.53,29.43,22,4,24,0.27
2013-2-9,30.9,30.4,30.0,30.2,29.6,29.3,97,97,96,29.38,29.33,0,0,0,0.00
2013-2-10,33.3,23.5,15.1,28.2,20.5,13.8,95,88,78,30.45,30.42,7,0,9,0.02
2013-2-11,47.3,33.3,12.4,46.6,32.0,10.4,98,95,92,30.43,29.67,19,4,22,0.50
2013-2-12,44.1,43.4,42.3,43.5,42.8,41.7,98,98,98,29.67,29.66,10,3,12,0.01
2013-2-24,37.8,34.1,32.5,36.7,33.1,31.3,97,96,96,29.90,29.65,18,6,19,0.55
2013-2-25,39.2,33.8,25.9,32.4,29.6,24.3,97,85,65,30.31,29.90,16,4,18,0.02
2013-2-26,43.0,33.6,22.6,35.6,27.9,21.2,96,81,57,30.40,30.20,13,2,14,0.00
2013-2-27,44.4,42.5,39.0,43.7,41.0,34.9,97,94,84,30.20,29.62,30,7,34,0.76
2013-2-28,43.3,39.2,36.0,40.5,37.8,34.7,97,94,88,29.71,29.57,11,2,15,0.01
2013-3-1,40.8,37.6,35.2,36.5,34.0,31.3,96,87,76,29.72,29.56,18,4,22,0.00
2013-3-2,41.2,37.1,34.2,32.4,30.7,28.6,85,78,68,29.73,29.68,13,2,14,0.00
2013-3-3,40.5,36.5,33.3,32.9,30.3,27.9,89,78,68,29.68,29.62,8,1,9,0.00
2013-3-4,41.7,35.5,30.0,30.4,26.8,24.3,92,71,52,29.75,29.61,16,3,20,0.00
2013-3-5,40.8,36.3,31.3,36.9,30.9,25.2,94,81,71,30.09,29.75,19,5,23,0.00
2013-3-6,41.7,37.6,32.2,36.5,34.8,30.6,96,90,77,30.12,29.98,22,4,27,0.01
2013-3-7,37.2,35.5,33.8,35.2,34.1,32.5,96,95,91,29.98,29.90,28,11,33,0.54
2013-3-8,40.8,34.9,32.4,35.6,33.0,31.3,97,93,75,30.12,29.88,28,10,30,0.44
2013-3-9,38.8,36.4,34.9,33.3,32.2,31.3,91,85,77,30.37,30.11,23,8,25,0.00
2013-3-10,41.2,37.4,33.8,34.3,32.7,31.6,92,83,74,30.46,30.36,10,3,13,0.00
2013-3-11,44.1,39.7,36.0,40.5,37.0,32.7,94,90,85,30.39,30.25,15,5,17,0.00
2013-3-12,50.2,47.3,42.4,49.3,45.6,40.8,97,94,90,30.25,29.82,23,9,24,0.53
2013-3-13,53.4,46.5,36.0,52.0,38.4,23.5,97,75,48,29.84,29.73,13,3,14,0.41
2013-3-14,37.9,32.0,25.0,26.8,20.2,7.5,86,63,42,29.87,29.75,14,3,16,0.00
2013-3-15,38.3,30.8,21.4,28.9,16.4,8.1,76,56,34,29.94,29.73,18,4,19,0.00
2013-3-16,37.8,34.1,28.2,28.8,22.9,18.0,81,64,50,29.93,29.75,12,2,14,0.00
2013-3-17,39.7,32.4,24.1,29.3,19.9,13.1,93,62,42,30.35,29.92,16,3,18,0.00
2013-3-18,35.4,30.3,24.3,25.7,17.9,6.6,73,60,44,30.50,30.30,15,4,16,0.00
2013-3-19,44.2,37.0,30.7,43.5,35.6,27.7,97,95,85,30.27,29.53,24,5,30,0.66
2013-3-20,41.4,33.7,26.8,30.0,24.3,20.1,94,70,44,29.89,29.72,23,4,26,0.00
2013-3-21,38.5,31.9,24.6,30.9,27.5,22.8,96,84,62,29.89,29.64,17,4,19,0.00
2013-3-22,40.1,32.8,27.1,33.1,27.2,21.6,96,81,51,29.80,29.64,12,2,13,0.10
2013-3-23,44.1,36.4,29.5,27.5,22.3,18.7,77,58,38,29.83,29.69,17,3,20,0.00
2013-3-24,44.2,36.8,28.9,29.5,25.3,21.4,87,63,49,29.89,29.80,12,2,15,0.00
2013-3-25,46.2,37.2,28.2,36.9,30.8,25.3,94,78,53,29.81,29.49,15,3,24,0.00
2013-3-26,45.0,38.7,35.2,34.0,29.9,25.3,90,72,47,29.75,29.50,22,6,27,0.00
2013-4-2,42.8,37.6,32.9,22.8,15.6,9.3,52,41,30,30.04,29.88,19,4,25,0.01
2013-4-3,46.8,37.8,31.1,18.1,15.6,12.2,56,41,25,30.21,30.00,23,4,23,0.00
2013-4-4,46.2,38.0,28.8,34.0,22.5,14.9,82,55,33,30.37,30.16,20,5,23,0.00
2013-4-5,50.4,43.1,38.8,44.8,38.2,32.5,94,83,68,30.17,29.71,18,4,22,0.06
2013-4-6,42.8,37.4,29.3,32.9,20.9,11.8,83,53,29,30.41,29.90,21,5,25,0.00
2013-4-7,46.8,38.9,25.2,43.2,32.7,22.8,96,79,53,30.41,30.13,22,7,26,0.00
2013-4-8,58.8,51.1,44.2,47.5,43.2,38.8,92,76,54,30.19,30.04,16,4,18,0.00
2013-4-9,68.4,52.3,44.2,54.7,46.9,40.1,97,83,61,30.17,29.90,16,4,19,0.03
2013-4-10,54.9,47.8,44.2,47.8,44.3,42.1,95,88,74,30.09,29.92,15,4,16,0.28
2013-4-11,49.6,45.6,43.9,44.4,41.1,33.3,97,85,65,30.19,29.86,16,3,17,0.03
2013-4-12,43.9,41.6,37.6,41.5,36.3,29.8,97,82,61,30.22,29.73,22,4,23,0.10
2013-4-13,45.7,41.2,38.7,41.4,38.6,36.1,97,91,79,30.01,29.72,20,6,30,0.00
2013-4-14,54.3,46.5,37.0,43.3,36.8,28.2,95,71,41,30.26,30.00,15,2,18,0.00
2013-4-15,50.5,43.5,36.3,41.5,36.7,29.1,93,77,63,30.49,30.25,14,3,15,0.00
2013-4-16,53.8,46.5,33.8,49.3,42.4,32.2,96,86,75,30.49,30.18,23,7,23,0.00
2013-4-17,60.6,51.8,37.6,52.3,43.4,34.5,95,75,38,30.39,30.15,22,4,23,0.01
2013-4-18,54.0,45.9,33.1,47.1,38.1,30.7,95,76,44,30.49,30.24,18,5,21,0.00
2013-4-19,64.4,57.1,50.0,61.5,55.5,47.1,98,94,87,30.24,29.83,23,9,27,0.00
2013-4-20,60.4,52.5,40.5,59.5,48.8,38.1,98,88,68,30.25,29.74,26,6,36,0.30
2013-4-21,46.4,41.0,32.0,38.1,28.0,24.4,92,61,48,30.73,30.25,16,3,18,0.00
2013-4-22,51.4,41.3,29.7,37.6,32.3,27.1,93,72,43,30.79,30.61,20,2,21,0.00
2013-4-23,44.8,43.0,40.5,43.5,41.4,34.9,97,94,80,30.61,30.04,16,4,21,0.55
2013-4-24,58.8,48.6,42.6,51.3,45.5,41.7,97,89,70,30.04,29.89,28,8,33,0.26
2013-4-25,58.5,51.1,39.0,53.8,45.6,37.2,95,83,55,30.30,29.97,20,4,20,0.01
2013-4-26,58.1,48.5,36.0,43.9,39.1,34.3,96,73,44,30.47,30.30,13,2,14,0.00
2013-4-27,56.7,46.8,35.8,45.0,37.3,31.8,97,73,42,30.48,30.38,12,2,13,0.00
2013-4-28,59.4,48.3,34.7,46.4,40.7,32.7,97,77,44,30.42,30.33,15,3,16,0.00
2013-4-29,59.5,49.4,39.9,49.5,39.2,26.1,97,72,29,30.36,30.30,15,3,15,0.00
2013-4-30,61.5,49.2,36.9,46.0,35.6,23.9,97,65,26,30.42,30.32,14,2,14,0.00
2013-5-1,61.0,48.9,37.0,49.8,43.4,34.0,96,82,64,30.54,30.42,12,2,15,0.00
2013-5-2,69.6,52.1,38.5,52.2,41.0,34.0,97,72,30,30.52,30.41,11,2,12,0.00
2013-5-3,50.5,45.7,37.6,44.6,41.7,35.4,95,86,77,30.53,30.40,17,4,25,0.00
2013-5-4,52.9,46.9,43.0,43.3,41.1,38.5,94,81,63,30.41,30.35,16,3,19,0.00
2013-5-5,55.8,48.2,43.0,45.5,42.9,40.3,93,83,65,30.36,30.30,17,3,17,0.00
2013-5-6,62.1,49.4,42.8,53.2,46.3,41.7,97,90,72,30.35,30.22,11,3,12,0.00
2013-5-7,65.5,55.8,46.6,60.4,53.7,45.9,98,93,82,30.25,30.18,12,3,13,0.00
2013-5-8,69.8,59.4,51.1,63.3,57.0,50.0,98,92,77,30.26,30.10,17,4,19,0.11
2013-5-9,65.1,58.3,53.8,62.8,57.0,52.3,99,96,90,30.10,29.94,13,4,18,0.09
2013-5-10,75.9,62.9,53.4,61.2,56.2,52.5,98,81,53,30.02,29.94,14,3,16,0.00
2013-5-11,65.8,59.5,55.0,60.4,57.6,53.4,98,94,80,30.01,29.78,21,6,24,0.60
2013-5-12,64.6,58.7,49.3,60.8,54.8,41.4,99,88,65,29.87,29.65,18,5,21,0.14
2013-5-13,55.8,49.4,37.0,42.8,37.3,30.6,95,65,42,30.06,29.87,22,4,24,0.00
2013-5-14,55.0,49.8,44.8,43.2,37.7,32.2,86,64,45,30.10,30.03,14,3,17,0.00
2013-5-15,61.2,51.0,36.3,55.6,44.1,34.3,97,79,41,30.13,29.75,25,6,33,0.00
2013-5-16,74.1,63.0,50.4,55.2,49.9,44.8,97,66,37,29.83,29.71,17,4,22,0.00
2013-5-17,62.4,56.0,46.0,49.6,45.4,41.7,91,69,49,30.27,29.83,17,3,17,0.00
2013-5-18,66.0,55.1,41.7,52.9,47.8,40.1,97,78,49,30.37,30.27,12,3,14,0.00
2013-5-19,67.5,57.7,45.7,55.0,50.0,44.2,97,78,51,30.41,30.30,17,4,19,0.08
2013-5-20,74.3,63.1,56.1,66.4,60.2,55.0,98,91,76,30.30,29.97,14,5,16,0.24
2013-5-21,77.7,62.4,54.1,69.4,59.7,53.1,98,91,74,30.02,29.89,15,3,17,0.00
2013-5-22,70.9,58.9,51.6,64.8,57.0,50.5,98,94,79,30.02,29.95,15,4,16,0.00
2013-5-23,70.3,64.9,61.0,66.7,63.3,60.3,98,94,88,30.00,29.92,23,9,25,0.10
2013-5-24,65.1,61.4,53.2,64.6,60.8,52.7,98,98,97,29.92,29.72,33,7,41,1.22
2013-5-25,54.3,50.2,42.6,52.7,48.9,41.4,98,95,88,29.79,29.72,18,5,24,0.07
2013-5-26,58.8,49.2,41.4,44.1,41.2,38.5,95,75,52,30.15,29.78,13,2,16,0.00
2013-5-27,70.9,57.3,45.9,47.8,43.5,34.3,87,63,27,30.22,30.12,15,3,22,0.00
2013-5-28,68.2,57.2,44.1,57.0,50.6,42.4,97,80,55,30.30,30.22,12,3,14,0.00
2013-5-29,66.9,59.8,57.0,63.5,58.2,55.9,97,95,87,30.27,30.07,20,6,21,0.51
2013-5-30,84.0,70.8,60.4,72.0,65.1,59.5,97,83,63,30.14,30.04,13,3,13,0.08
2013-5-31,90.3,75.0,60.8,70.9,64.5,58.8,95,72,47,30.14,30.00,16,4,16,0.00
2013-6-1,82.2,70.2,60.1,69.8,63.9,58.3,95,82,62,30.04,29.96,21,6,23,0.00
2013-6-2,74.8,67.1,63.0,68.4,63.6,60.6,94,89,79,29.99,29.87,23,8,23,0.00
2013-6-3,66.4,64.3,62.8,65.5,63.5,62.1,98,97,94,29.91,29.83,17,6,18,2.20
2013-6-4,68.4,60.6,50.2,62.2,50.5,45.7,99,72,47,30.12,29.84,11,2,13,0.00
2013-6-5,68.7,58.0,47.1,54.0,48.8,45.5,98,74,49,30.24,30.12,13,3,16,0.00
2013-6-6,67.1,59.5,49.5,57.9,52.5,47.8,96,79,56,30.26,30.13,15,3,16,0.00
2013-6-7,66.7,58.3,56.5,66.2,56.5,52.3,98,94,80,30.15,29.81,23,4,28,1.25
2013-6-8,70.3,65.2,59.5,67.1,62.7,58.5,98,92,77,30.04,29.60,26,7,27,0.16
2013-6-9,77.4,67.2,56.5,62.2,59.0,55.6,98,77,51,30.20,30.04,14,2,16,0.00
2013-6-10,73.2,62.7,55.8,62.6,58.3,54.1,97,86,64,30.23,30.05,11,2,14,0.51
2013-6-11,74.1,63.7,54.9,69.1,62.0,53.8,98,95,80,30.04,29.57,17,5,23,1.03
2013-6-12,70.2,61.6,54.7,59.4,56.5,53.6,98,84,60,29.83,29.60,14,2,16,0.00
2013-6-13,66.7,58.0,51.8,58.3,54.3,50.4,96,88,67,29.87,29.66,10,2,11,0.12
2013-6-14,61.3,55.6,51.4,54.9,52.5,49.8,97,90,74,29.80,29.60,18,4,25,0.59
2013-6-15,74.1,64.0,51.4,59.4,52.9,43.9,96,70,36,30.00,29.79,13,3,15,0.00
2013-6-16,75.6,65.4,54.9,62.8,58.2,51.4,97,80,44,30.00,29.81,17,4,19,0.00
2013-6-17,78.4,68.7,58.8,67.6,62.9,57.4,97,83,64,29.96,29.82,21,3,23,0.02
2013-6-18,75.2,65.2,58.1,67.6,61.4,57.0,98,88,71,29.97,29.89,10,2,11,0.01
2013-6-19,67.3,61.3,52.9,59.4,55.8,50.9,96,83,63,30.20,29.88,13,3,14,0.00
2013-6-20,71.6,62.4,49.8,61.0,55.5,48.4,98,79,62,30.33,30.20,17,4,18,0.00
2013-6-21,73.6,65.9,56.7,59.2,54.8,51.3,91,69,53,30.34,30.26,18,6,21,0.00
2013-6-22,77.7,67.8,60.3,63.9,59.6,54.3,94,77,46,30.29,30.19,14,5,18,0.00
2013-6-23,79.9,71.1,64.0,69.4,66.2,62.1,95,85,65,30.23,30.09,20,6,23,0.00
2013-6-24,87.1,75.9,67.6,76.1,70.6,65.7,98,84,69,30.10,29.90,16,5,22,0.00
2013-6-25,86.7,75.3,67.8,71.8,68.2,65.1,92,80,56,29.95,29.78,15,4,16,0.00
2013-6-26,87.6,76.1,69.1,73.8,70.1,66.9,95,83,62,29.87,29.75,17,2,17,0.00
2013-6-27,77.5,68.7,65.8,72.0,67.0,64.8,98,95,82,29.88,29.78,12,2,13,0.00
2013-6-28,70.5,68.9,67.6,70.0,68.4,67.1,99,98,97,29.79,29.60,23,8,25,0.39
2013-6-29,71.6,69.4,68.0,70.9,68.7,67.5,99,98,94,29.81,29.58,18,7,19,1.09
2013-6-30,74.8,70.2,67.8,71.2,68.8,67.3,98,95,82,30.01,29.80,14,5,18,0.04
2013-7-1,75.4,71.3,68.5,73.2,70.1,67.8,98,96,91,30.16,30.01,19,5,22,0.29
2013-7-2,78.3,73.1,70.0,74.7,71.3,68.5,97,94,87,30.25,30.15,17,6,19,0.04
2013-7-3,81.7,75.0,70.5,74.7,71.7,69.4,97,90,76,30.27,30.20,19,6,20,0.00
2013-7-4,84.9,76.5,71.1,77.4,72.9,69.8,97,89,73,30.26,30.15,17,5,19,0.00
2013-7-5,88.0,78.2,72.0,78.3,72.8,69.4,93,84,70,30.20,30.09,13,4,17,0.00
2013-7-6,88.9,78.9,71.8,78.6,73.6,69.6,93,84,71,30.12,29.99,13,3,13,0.00
2013-7-7,90.3,78.7,70.7,77.7,72.8,69.3,96,83,63,30.04,29.94,13,2,13,0.00
2013-7-8,86.2,77.3,70.2,76.1,71.7,67.6,96,84,70,30.06,29.95,15,3,17,0.00
2013-7-9,72.1,69.7,67.3,69.1,67.5,66.0,97,93,88,30.12,30.05,7,1,8,0.00
2013-7-10,79.3,74.7,70.3,74.5,72.3,68.9,97,93,83,30.10,29.86,17,5,19,0.01
2013-7-11,75.4,73.3,70.9,73.0,71.5,68.4,96,94,89,29.93,29.84,14,4,16,0.09
2013-7-12,71.1,68.8,66.2,69.6,66.6,63.1,97,93,85,30.20,29.93,11,2,15,0.00
2013-7-13,78.6,70.9,66.6,73.4,68.6,64.8,97,92,82,30.33,30.20,9,1,9,0.00
2013-7-14,83.5,75.5,70.5,76.1,72.8,69.3,97,92,78,30.33,30.22,12,2,14,0.06
2013-7-15,89.1,78.4,70.2,76.5,72.8,68.9,97,84,56,30.22,30.11,8,1,9,0.01
2013-7-16,85.1,77.8,70.2,73.0,70.1,67.3,95,78,63,30.18,30.10,9,2,10,0.00
2013-7-17,83.5,74.9,66.6,73.6,69.0,64.2,95,82,61,30.21,30.06,12,3,13,0.00
2013-7-18,86.2,79.1,73.8,77.2,73.0,69.6,93,82,66,30.07,29.99,11,3,13,0.00
2013-7-19,89.2,80.7,75.2,79.7,75.8,73.4,95,86,71,29.99,29.79,20,6,27,0.00
2013-7-20,85.1,79.4,74.5,77.7,74.5,70.0,92,85,74,29.82,29.69,19,5,21,0.00
2013-7-21,80.4,73.8,68.7,72.9,69.5,66.0,93,87,72,30.02,29.81,10,2,10,0.02
2013-7-22,78.6,71.9,67.8,70.9,68.3,65.7,95,89,72,30.03,29.91,12,2,13,0.00
2013-7-23,81.9,75.8,70.7,76.5,73.0,69.4,96,91,82,29.91,29.58,19,5,22,0.00
2013-7-24,85.8,77.2,70.2,74.8,71.1,64.6,95,82,63,29.92,29.60,12,2,14,0.00
2013-7-25,72.1,65.1,62.4,66.2,60.8,58.6,94,86,79,30.07,29.92,15,5,18,0.00
2013-7-26,66.9,64.8,62.8,65.7,63.5,61.0,96,95,94,30.05,29.90,19,4,22,0.40
2013-7-27,79.3,71.5,64.0,70.9,67.0,62.6,95,87,64,30.11,30.04,16,4,16,0.01
2013-7-28,77.4,72.1,67.3,75.2,69.5,65.1,95,91,85,30.06,29.97,9,1,10,0.13
2013-7-29,78.3,72.2,65.5,73.8,69.4,63.7,96,91,81,30.07,30.01,13,3,17,0.00
2013-7-30,78.6,71.5,65.5,68.4,64.8,61.2,95,80,61,30.12,30.04,9,2,11,0.00
2013-7-31,78.3,69.0,59.5,67.1,61.9,57.6,95,79,52,30.16,30.09,12,1,12,0.00
2013-8-1,76.3,69.3,61.3,68.5,64.5,59.0,98,85,66,30.09,29.93,16,3,18,0.04
2013-8-2,80.4,70.7,65.1,71.8,66.4,63.0,95,87,68,29.93,29.82,15,2,17,0.64
2013-8-3,72.7,69.7,67.1,67.1,65.9,64.2,93,88,79,29.93,29.83,14,4,17,0.01
2013-8-4,76.8,68.2,58.6,65.3,60.7,55.2,91,78,61,29.89,29.79,9,1,10,0.01
2013-8-5,74.1,64.6,54.9,58.3,54.9,50.5,92,73,47,30.07,29.89,10,2,11,0.00
2013-8-6,76.5,62.9,49.5,60.4,55.1,47.3,95,78,46,30.19,30.06,11,2,13,0.00
2013-8-7,74.1,63.8,51.8,63.7,54.9,48.0,95,75,43,30.24,30.17,13,2,14,0.00
2013-8-8,78.3,70.7,57.7,70.3,65.5,54.5,92,84,73,30.18,30.08,19,5,20,0.00
2013-8-9,74.5,72.9,69.6,72.3,70.5,66.9,94,92,90,30.11,29.83,24,8,26,0.26
2013-8-10,83.7,73.9,62.2,71.1,66.8,59.2,95,80,50,30.03,29.82,13,2,15,0.00
2013-8-11,76.8,67.5,58.6,61.3,57.5,51.3,92,72,46,30.11,30.02,13,2,15,0.00
2013-8-12,75.6,68.5,59.4,69.4,64.0,56.8,95,86,71,30.08,29.96,12,2,13,0.00
2013-8-13,71.1,68.2,65.3,68.5,66.1,63.5,96,93,89,29.96,29.71,10,1,11,0.08
2013-8-14,75.7,66.8,59.7,63.5,57.9,54.0,95,75,50,29.98,29.69,13,1,15,0.00
2013-8-15,75.6,64.6,53.2,57.6,53.4,47.5,92,69,40,30.16,29.98,13,2,15,0.00
2013-8-16,76.3,67.0,55.9,63.0,57.5,50.7,94,74,42,30.24,30.15,16,3,17,0.00
2013-8-17,74.7,66.1,55.8,65.1,61.0,53.8,95,84,69,30.31,30.23,9,1,10,0.00
2013-8-18,73.8,65.1,57.4,66.4,60.0,55.0,95,84,61,30.31,30.12,8,1,9,0.10
2013-8-19,79.5,67.9,55.9,67.5,62.5,54.3,95,84,59,30.12,29.98,11,1,11,0.00
2013-8-20,83.1,72.1,63.9,69.4,65.0,61.0,94,79,56,30.12,30.00,11,2,11,0.06
2013-8-21,86.4,72.8,62.2,69.6,64.9,60.3,95,78,48,30.18,30.07,12,2,17,0.00
2013-8-22,80.8,72.9,68.4,73.2,69.1,64.9,94,88,75,30.08,29.88,14,4,15,0.00
2013-8-23,73.8,69.3,59.0,68.7,62.9,55.9,93,81,63,30.12,29.84,18,3,22,0.00
2013-8-24,70.3,63.4,50.4,60.6,54.8,47.3,93,75,50,30.37,30.12,15,2,15,0.00
2013-8-25,80.2,63.8,46.9,61.0,53.9,44.8,95,73,41,30.40,30.25,13,2,16,0.00
2013-8-26,75.6,69.2,58.8,67.1,63.8,55.2,90,83,70,30.25,29.92,17,4,24,0.00
2013-8-27,71.2,69.0,66.6,69.3,67.0,64.9,95,93,90,29.92,29.86,10,2,11,0.27
2013-8-28,72.3,66.7,64.2,68.5,64.7,62.4,96,93,85,29.97,29.88,8,1,8,0.00
2013-8-29,68.4,64.5,60.4,64.6,62.0,57.2,95,92,87,30.07,29.96,10,2,13,0.00
2013-8-30,62.4,60.3,58.1,58.8,57.3,55.6,92,90,88,30.05,30.01,3,1,6,0.00
2013-9-2,73.2,71.7,71.2,70.5,69.8,69.4,94,94,91,29.79,29.77,12,4,13,0.00
2013-9-3,78.1,71.0,66.9,72.9,68.8,64.6,95,93,84,29.85,29.73,16,3,18,1.09
2013-9-4,77.5,67.4,59.2,66.0,61.4,57.4,95,82,61,29.96,29.83,12,2,13,0.00
2013-9-5,71.4,61.6,50.4,67.1,58.3,48.0,95,89,78,30.15,29.92,9,1,14,0.00
2013-9-6,66.0,56.5,47.1,54.9,49.5,44.6,94,79,54,30.27,30.15,8,1,9,0.01
2013-9-7,72.0,59.7,44.1,59.5,52.0,41.9,95,77,52,30.16,29.92,19,3,19,0.00
2013-9-8,77.5,66.4,58.3,66.2,58.2,45.1,90,75,60,30.11,29.77,13,3,15,0.00
2013-9-9,65.8,57.7,44.2,55.2,49.1,41.5,92,74,53,30.28,30.11,13,2,15,0.00
2013-9-10,71.8,66.9,59.9,67.1,60.9,54.3,89,81,75,30.23,30.10,18,5,24,0.00
2013-9-11,84.9,74.7,68.9,76.3,70.2,66.6,93,86,75,30.14,30.01,19,6,21,0.00
2013-9-12,79.0,73.1,69.3,72.7,69.4,67.1,93,88,81,30.05,29.78,18,6,21,0.00
2013-9-13,73.4,69.2,62.1,69.1,66.3,58.8,94,90,83,29.75,29.60,13,2,14,0.50
2013-9-14,68.2,61.8,54.7,60.6,57.0,51.8,91,85,74,30.08,29.75,10,1,11,0.00
2013-9-15,68.5,57.4,48.6,55.6,51.4,46.4,94,81,59,30.21,30.08,12,1,15,0.00
2013-9-16,65.1,57.1,50.4,59.2,53.1,47.3,95,87,69,30.23,30.06,15,1,18,0.02
2013-9-17,56.8,51.9,40.8,48.2,43.2,38.5,91,73,59,30.43,30.23,12,4,19,0.00
2013-9-18,69.6,54.2,39.0,53.8,45.1,36.9,94,75,39,30.37,30.19,10,1,11,0.00
2013-9-19,75.7,59.7,44.2,59.0,52.5,42.1,99,80,48,30.20,30.07,9,1,11,0.00
2013-9-20,77.4,61.9,50.5,62.8,54.4,48.6,95,79,43,30.13,30.04,12,2,12,0.00
2013-9-21,73.2,63.7,50.7,66.4,59.7,48.4,95,87,71,30.09,29.82,17,5,19,0.03
2013-9-22,70.7,66.0,54.5,66.7,61.7,49.3,93,86,75,29.83,29.69,19,4,23,0.09
2013-9-23,60.3,54.1,45.7,49.6,46.2,42.1,88,75,63,30.02,29.83,13,3,14,0.00
2013-9-24,60.6,51.4,41.5,49.5,44.7,38.5,90,79,61,30.03,29.86,10,1,11,0.00
2013-9-25,61.5,53.2,43.3,52.3,47.8,41.2,93,82,64,30.01,29.93,10,1,11,0.00
2013-9-26,60.3,55.2,47.8,51.4,49.5,44.8,91,82,66,30.14,30.01,12,2,14,0.00
2013-9-27,61.3,57.2,46.8,55.4,52.4,44.2,92,84,76,30.29,30.14,13,2,15,0.00
2013-9-28,67.1,55.2,43.9,60.1,51.2,41.5,94,87,73,30.35,30.28,8,1,10,0.00
2013-9-29,64.8,54.5,42.4,56.1,50.3,40.3,94,86,70,30.30,30.14,8,1,9,0.00
2013-9-30,64.0,57.9,49.6,58.6,54.6,47.1,93,89,80,30.14,29.99,11,2,12,0.00
2013-10-1,69.3,57.5,48.9,57.0,51.5,46.9,94,82,55,29.99,29.88,13,1,14,0.00
2013-10-2,77.4,65.1,52.2,65.1,58.7,49.8,93,81,61,29.97,29.85,16,2,17,0.00
2013-10-3,74.5,63.2,52.0,58.8,54.7,49.5,91,76,47,30.12,29.97,8,1,10,0.00
2013-10-4,72.0,57.2,47.8,61.7,53.6,45.7,95,88,68,30.12,30.05,9,0,13,0.00
2013-10-5,65.8,59.9,54.1,62.4,57.2,51.8,94,91,84,30.16,30.08,7,0,7,0.08
2013-10-6,62.2,58.4,54.9,59.2,55.7,52.5,94,91,80,30.24,30.15,12,1,14,0.05
2013-10-7,71.2,67.4,62.2,68.0,64.9,59.2,93,91,88,30.17,29.91,21,7,24,0.36
2013-10-8,66.0,57.5,49.6,63.9,51.3,46.0,93,80,63,30.38,29.93,13,2,15,0.13
2013-10-9,61.0,55.4,49.8,49.5,47.2,44.2,88,74,65,30.47,30.38,14,2,16,0.00
2013-10-10,64.6,57.8,51.6,58.3,53.7,46.9,91,86,78,30.38,30.17,9,2,10,0.00
2013-10-11,64.8,59.2,52.9,59.4,55.9,50.4,93,89,81,30.17,30.12,16,2,17,0.00
2013-10-12,65.8,58.2,52.9,57.9,53.8,49.1,92,86,73,30.40,30.15,11,2,15,0.00
2013-10-13,60.1,52.5,39.6,49.5,46.7,37.2,91,81,67,30.47,30.38,14,1,14,0.00
2013-10-14,61.5,47.7,37.0,51.4,43.2,34.9,94,85,68,30.45,30.31,10,1,11,0.00
2013-10-15,65.8,52.0,40.5,55.0,47.1,38.3,94,84,61,30.32,30.21,8,1,9,0.00
2013-10-16,59.0,54.8,45.1,57.0,52.8,43.0,94,93,92,30.22,29.94,9,2,13,0.00
2013-10-17,69.1,61.0,55.9,62.6,58.0,54.3,95,90,79,29.95,29.80,13,3,16,0.00
2013-10-18,70.2,61.9,46.2,62.4,55.0,43.5,93,80,51,29.96,29.69,14,3,15,0.01
2013-10-19,62.4,53.2,42.3,53.4,45.7,39.4,92,77,47,30.05,29.81,10,2,12,0.00
2013-10-20,63.1,55.2,39.0,55.8,45.1,35.2,91,72,38,30.07,29.75,12,1,17,0.00
2013-10-21,64.9,51.0,37.4,48.6,42.0,34.7,92,74,43,30.18,30.07,12,2,14,0.00
2013-10-22,64.9,54.9,43.3,56.3,49.6,40.6,94,83,68,30.08,29.75,14,2,14,0.00
2013-10-23,53.1,47.9,41.5,46.2,41.0,36.7,92,78,61,29.83,29.63,9,1,10,0.01
2013-10-24,52.9,44.0,36.1,40.1,34.7,29.3,92,72,41,29.95,29.68,20,2,20,0.00
2013-10-25,52.2,42.2,34.0,37.2,32.4,29.1,86,69,48,30.23,29.95,12,1,14,0.00
2013-10-26,56.1,45.0,29.7,44.4,35.9,27.1,92,72,52,30.24,29.94,25,6,29,0.00
2013-10-27,57.6,50.4,37.6,44.8,37.9,31.3,88,63,48,30.12,29.88,13,2,18,0.01
2013-10-28,57.7,46.1,31.8,43.5,36.0,28.6,90,69,47,30.37,30.12,17,3,21,0.00
2013-10-29,51.1,42.7,33.4,41.0,35.6,30.2,89,76,59,30.45,30.37,8,1,9,0.00
2013-10-30,52.9,42.7,31.6,48.6,39.9,29.3,93,90,83,30.43,30.26,5,0,5,0.01
2013-10-31,63.3,52.7,37.6,59.7,49.7,35.4,95,90,81,30.30,29.94,16,4,22,0.00
2013-11-1,69.1,63.9,61.2,64.8,60.9,56.5,99,90,80,29.94,29.60,31,9,35,0.65
2013-11-2,61.2,56.2,51.3,57.0,52.5,48.7,92,88,75,29.77,29.64,9,1,11,0.00
2013-11-3,54.3,46.1,38.7,50.4,40.5,28.6,92,81,62,30.40,29.75,17,5,19,0.00
2013-11-4,43.0,39.5,34.9,32.2,28.7,25.7,84,65,56,30.75,30.40,15,4,16,0.00
2013-11-5,49.6,39.2,32.7,36.9,32.8,29.3,91,79,60,30.76,30.59,10,1,10,0.00
2013-11-6,56.1,47.6,33.6,52.5,44.0,31.3,97,88,71,30.60,30.15,15,3,16,0.00
2013-11-7,62.2,56.0,43.5,60.1,53.5,39.0,93,91,84,30.15,29.72,21,5,22,0.00
2013-11-8,50.9,42.0,34.2,38.8,30.9,24.4,84,65,49,30.16,29.85,13,2,15,0.00
2013-11-9,45.7,37.8,32.2,32.5,27.3,23.7,86,67,44,30.27,30.14,12,1,13,0.00
2013-11-10,56.8,46.8,36.1,48.7,40.6,32.4,91,80,61,30.14,29.78,15,2,17,0.00
2013-11-11,53.2,46.4,38.7,45.5,34.5,29.3,76,64,43,30.15,29.92,17,4,20,0.00
2013-11-12,53.2,37.8,27.7,46.8,33.0,24.1,92,84,64,30.22,29.93,15,3,17,0.00
2013-11-13,37.6,29.6,25.7,26.4,21.1,16.5,86,71,45,30.33,30.22,14,2,18,0.00
2013-11-14,49.3,41.0,23.2,36.0,29.2,19.2,91,64,38,30.27,30.12,17,3,18,0.00
2013-11-15,58.1,50.3,41.2,47.8,40.5,30.9,90,70,47,30.29,30.19,20,4,25,0.00
2013-11-16,60.8,44.0,33.1,45.1,36.2,30.4,93,76,40,30.39,30.27,10,1,11,0.00
2013-11-17,57.6,47.9,32.9,54.3,44.6,30.4,94,89,68,30.38,29.94,16,4,18,0.00
2013-11-18,62.1,56.1,42.3,60.1,52.0,39.4,95,87,61,29.94,29.63,24,6,30,0.00
2013-11-19,47.3,41.0,34.2,41.2,27.8,22.3,90,60,42,30.32,29.72,18,3,22,0.00
2013-11-20,39.4,33.3,25.0,26.8,23.1,19.9,86,66,51,30.65,30.32,18,3,20,0.00
2013-11-21,49.5,34.1,22.5,35.6,27.6,19.8,91,78,48,30.69,30.46,10,1,11,0.00
2013-11-22,52.9,45.4,34.3,50.9,43.0,31.1,93,91,88,30.46,29.88,12,1,15,0.00
2013-11-23,48.4,43.2,32.0,46.4,31.1,17.8,93,64,37,29.93,29.83,15,2,18,0.00
2013-11-24,31.8,25.8,21.7,19.0,6.8,-3.5,62,45,28,30.22,29.84,24,6,24,0.00
2013-11-25,32.4,23.4,17.6,18.1,4.4,-0.8,79,46,25,30.45,30.22,14,2,16,0.00
2013-11-26,47.1,41.1,23.9,45.0,34.2,18.1,92,77,62,30.40,30.11,18,3,18,0.00
2013-11-27,60.1,53.1,40.3,58.3,51.2,38.1,94,93,92,30.11,29.19,30,9,37,0.00
2013-11-28,40.1,33.0,25.2,37.9,21.6,12.6,92,64,45,30.50,29.52,16,3,26,0.00
2013-11-29,36.0,29.2,25.0,19.9,16.1,13.8,66,58,44,30.77,30.49,10,2,11,0.00
2013-11-30,37.0,28.5,18.9,29.8,19.9,13.1,89,71,49,30.82,30.53,9,1,10,0.00
2013-12-1,48.6,43.8,37.0,46.6,39.6,29.8,93,85,74,30.53,30.02,17,5,17,0.00
2013-12-2,46.8,40.7,39.6,44.8,38.8,37.2,94,93,91,30.04,29.94,9,2,10,0.00
2013-12-3,42.3,39.6,33.4,39.4,37.1,30.9,92,91,88,29.99,29.88,18,4,18,0.00
2013-12-4,46.8,35.7,28.2,34.2,30.0,25.7,92,81,55,30.27,29.99,10,1,10,0.00
2013-12-5,53.4,44.3,28.2,51.8,41.8,25.7,94,91,87,30.28,30.01,17,4,19,0.00
2013-12-6,57.7,49.8,38.3,56.3,47.9,36.0,95,93,85,30.17,29.95,16,4,17,0.00
2013-12-7,41.2,36.2,30.9,36.5,31.4,21.7,93,83,63,30.50,30.10,15,3,15,0.00
2013-12-8,34.2,30.6,25.3,25.2,22.5,17.2,78,72,65,30.64,30.49,10,1,10,0.00
2013-12-9,46.0,39.0,31.5,44.1,36.5,24.4,94,91,73,30.54,29.92,18,2,22,0.00
2013-12-10,37.6,32.5,25.3,35.8,30.6,22.3,94,93,88,30.08,29.84,12,1,12,0.00
2013-12-11,33.6,28.2,20.8,24.4,21.3,18.1,91,76,57,30.32,30.08,17,2,17,0.00
2013-12-12,28.8,21.7,9.3,20.5,11.0,2.7,85,65,36,30.33,30.17,16,2,18,0.00
2013-12-13,32.4,24.2,9.1,17.2,13.8,5.5,87,65,46,30.41,30.08,18,2,18,0.00
2013-12-14,32.2,24.1,19.4,30.0,18.9,9.5,92,80,63,30.63,30.19,13,3,16,0.00
2013-12-15,50.7,35.7,27.1,49.1,33.4,23.4,94,91,77,30.19,29.37,22,4,32,0.00
2013-12-16,31.5,26.5,16.5,25.7,15.5,8.4,93,65,39,30.28,29.83,14,2,17,0.00
2013-12-17,41.7,25.1,11.8,39.4,20.0,8.4,93,81,58,30.33,29.91,18,2,23,0.00
2013-12-18,36.7,31.0,22.8,34.9,25.8,20.8,93,81,61,30.17,29.81,20,4,23,0.00
2013-12-19,47.3,37.3,27.0,37.0,29.7,22.8,85,74,64,30.20,30.05,23,4,26,0.00
2013-12-20,54.5,42.9,29.5,46.9,38.1,26.6,92,83,66,30.21,30.04,23,4,25,0.00
2013-12-21,57.6,53.9,49.5,54.5,50.0,46.8,91,87,80,30.08,29.99,22,8,24,0.00
2013-12-22,60.6,54.7,43.0,57.9,52.4,40.8,94,92,87,30.07,29.91,29,8,31,0.00
2013-12-23,45.0,42.0,38.5,42.8,40.3,36.9,95,94,92,30.12,29.99,13,2,17,0.00
2013-12-24,39.9,34.5,28.2,38.1,29.3,20.7,94,81,64,30.24,30.05,19,5,24,0.00
2013-12-25,28.2,21.7,19.0,21.4,13.9,7.5,79,72,58,30.62,30.24,16,3,22,0.00
2013-12-26,40.3,30.7,17.8,35.6,27.3,13.1,92,87,76,30.57,30.12,15,2,17,0.00
2013-12-27,37.0,29.5,22.1,26.1,22.9,19.2,90,77,55,30.35,30.26,14,1,15,0.00
2013-12-28,48.6,33.2,18.7,37.0,27.5,16.5,93,81,57,30.32,30.09,23,3,26,0.00
2013-12-29,55.8,39.6,27.9,54.1,37.3,25.3,94,91,83,30.13,29.36,25,3,27,0.01
2013-12-30,42.4,36.3,27.0,38.5,29.7,17.8,93,78,56,30.19,29.49,23,3,25,0.00
2013-12-31,28.8,22.8,15.6,18.3,14.2,10.6,90,70,48,30.25,30.09,11,3,14,0.00
2014-1-1,30.2,23.7,18.3,18.1,12.4,7.9,80,62,45,30.45,30.25,19,2,20,0.00
2014-1-2,31.6,27.5,23.4,29.7,24.8,17.6,93,89,74,30.41,29.73,18,3,23,0.00